UPS2085 KEWR-KSDF

Flight info

Callsign UPS2085
Flight time 1h 37m
Altitude 36000
Route ZIMMZ Q42 MIKYG Q480 AIR UKATS DLAMP8
Aircraft A306/H-SDE3FGHIRWY/LB1

Departure

Time 2026-04-21 13:01
Airport Newark Liberty International Airport (KEWR)

Arrival

Time 2026-04-21 14:38
Airport Louisville Muhammad Ali International Airport (KSDF)
Time Latitude Longitude Altitude Speed Heading
2026-04-21 12:05 40.70464 -74.17535 28 ft 0 kts 316°
2026-04-21 12:41 40.70460 -74.17530 27 ft 4 kts 315°
2026-04-21 12:41 40.70442 -74.17504 28 ft 4 kts 307°
2026-04-21 12:42 40.70428 -74.17474 27 ft 4 kts 282°
2026-04-21 12:42 40.70427 -74.17452 26 ft 4 kts 199°
2026-04-21 12:42 40.70430 -74.17450 25 ft 0 kts 182°
2026-04-21 12:52 40.70410 -74.17451 27 ft 5 kts 182°
2026-04-21 12:52 40.70366 -74.17446 28 ft 8 kts 156°
2026-04-21 12:52 40.70344 -74.17375 28 ft 10 kts 91°
2026-04-21 12:52 40.70339 -74.17279 28 ft 12 kts 96°
2026-04-21 12:53 40.70331 -74.17160 28 ft 14 kts 95°
2026-04-21 12:53 40.70322 -74.17019 28 ft 17 kts 95°
2026-04-21 12:53 40.70311 -74.16853 28 ft 19 kts 95°
2026-04-21 12:53 40.70286 -74.16727 28 ft 13 kts 143°
2026-04-21 12:54 40.70182 -74.16730 26 ft 17 kts 186°
2026-04-21 12:54 40.70058 -74.16745 28 ft 19 kts 185°
2026-04-21 12:54 40.69916 -74.16761 28 ft 22 kts 185°
2026-04-21 12:54 40.69765 -74.16808 28 ft 23 kts 204°
2026-04-21 12:55 40.69621 -74.16899 28 ft 23 kts 206°
2026-04-21 12:55 40.69482 -74.16975 28 ft 20 kts 184°
2026-04-21 12:55 40.69349 -74.16976 28 ft 19 kts 187°
2026-04-21 12:55 40.69226 -74.17032 28 ft 18 kts 206°
2026-04-21 12:56 40.69117 -74.17101 28 ft 17 kts 207°
2026-04-21 12:56 40.69014 -74.17167 27 ft 16 kts 205°
2026-04-21 12:56 40.68914 -74.17231 28 ft 16 kts 206°
2026-04-21 12:56 40.68802 -74.17304 29 ft 19 kts 206°
2026-04-21 12:57 40.68682 -74.17381 29 ft 18 kts 204°
2026-04-21 12:57 40.68572 -74.17448 29 ft 17 kts 206°
2026-04-21 12:57 40.68471 -74.17512 29 ft 17 kts 206°
2026-04-21 12:57 40.68348 -74.17592 28 ft 22 kts 206°
2026-04-21 12:58 40.68209 -74.17683 28 ft 22 kts 203°
2026-04-21 12:58 40.68077 -74.17764 28 ft 20 kts 205°
2026-04-21 12:58 40.67957 -74.17840 28 ft 18 kts 206°
2026-04-21 12:58 40.67849 -74.17909 28 ft 17 kts 205°
2026-04-21 12:59 40.67749 -74.17972 27 ft 15 kts 206°
2026-04-21 12:59 40.67659 -74.18030 28 ft 14 kts 206°
2026-04-21 12:59 40.67585 -74.18020 28 ft 10 kts 136°
2026-04-21 12:59 40.67564 -74.17945 29 ft 7 kts 81°
2026-04-21 13:00 40.67594 -74.17913 29 ft 5 kts 27°
2026-04-21 13:00 40.67625 -74.17892 28 ft 5 kts 27°
2026-04-21 13:00 40.67708 -74.17832 27 ft 34 kts 31°
2026-04-21 13:00 40.68064 -74.17615 27 ft 84 kts 27°
2026-04-21 13:01 40.68769 -74.17162 30 ft 139 kts 26°
2026-04-21 13:01 40.69784 -74.16507 154 ft 179 kts 27°
2026-04-21 13:01 40.70889 -74.15725 932 ft 182 kts 30°
2026-04-21 13:01 40.71867 -74.14638 1790 ft 190 kts 43°
2026-04-21 13:02 40.72848 -74.13356 2357 ft 203 kts 45°
2026-04-21 13:02 40.73884 -74.12007 2807 ft 223 kts 45°
2026-04-21 13:02 40.76499 -74.09272 3574 ft 254 kts 17°
2026-04-21 13:03 40.78259 -74.09327 4368 ft 257 kts 339°
2026-04-21 13:03 40.79762 -74.10489 5445 ft 251 kts 322°
2026-04-21 13:03 40.80948 -74.12185 6443 ft 251 kts 302°
2026-04-21 13:03 40.81536 -74.14315 7417 ft 252 kts 280°
2026-04-21 13:04 40.81411 -74.16642 8311 ft 260 kts 258°
2026-04-21 13:04 40.80893 -74.18942 9207 ft 261 kts 263°
2026-04-21 13:04 40.80799 -74.21305 10070 ft 259 kts 277°
2026-04-21 13:04 40.80903 -74.23748 10603 ft 275 kts 275°
2026-04-21 13:05 40.80936 -74.26365 10888 ft 295 kts 274°
2026-04-21 13:05 40.80945 -74.29150 11154 ft 313 kts 274°
2026-04-21 13:05 40.80937 -74.32114 11425 ft 330 kts 273°
2026-04-21 13:05 40.80919 -74.35221 11689 ft 345 kts 273°
2026-04-21 13:06 40.80897 -74.38392 12063 ft 354 kts 273°
2026-04-21 13:06 40.80873 -74.41687 12608 ft 358 kts 273°
2026-04-21 13:06 40.80850 -74.45000 13209 ft 362 kts 273°
2026-04-21 13:06 40.80827 -74.48326 13796 ft 365 kts 274°
2026-04-21 13:07 40.80805 -74.51661 14386 ft 368 kts 274°
2026-04-21 13:07 40.80784 -74.55071 14911 ft 370 kts 274°
2026-04-21 13:07 40.80764 -74.58451 15441 ft 373 kts 274°
2026-04-21 13:07 40.80743 -74.61892 15990 ft 375 kts 274°
2026-04-21 13:08 40.80721 -74.65359 16535 ft 377 kts 274°
2026-04-21 13:08 40.80698 -74.68795 17094 ft 379 kts 274°
2026-04-21 13:08 40.80673 -74.72310 17626 ft 382 kts 274°
2026-04-21 13:08 40.80648 -74.75792 18137 ft 384 kts 275°
2026-04-21 13:09 40.80621 -74.79351 18652 ft 386 kts 275°
2026-04-21 13:09 40.80592 -74.82923 19082 ft 389 kts 275°
2026-04-21 13:09 40.80563 -74.86466 19501 ft 391 kts 275°
2026-04-21 13:09 40.80531 -74.90076 19912 ft 393 kts 275°
2026-04-21 13:10 40.80500 -74.93665 20323 ft 395 kts 275°
2026-04-21 13:10 40.80467 -74.97309 20689 ft 397 kts 275°
2026-04-21 13:10 40.80432 -75.00987 21082 ft 399 kts 275°
2026-04-21 13:10 40.80396 -75.04633 21489 ft 401 kts 276°
2026-04-21 13:11 40.80358 -75.08352 21870 ft 403 kts 276°
2026-04-21 13:11 40.80208 -75.12045 22209 ft 410 kts 270°
2026-04-21 13:11 40.79803 -75.15814 22559 ft 415 kts 268°
2026-04-21 13:11 40.79321 -75.19545 22903 ft 418 kts 267°
2026-04-21 13:12 40.78781 -75.23355 23259 ft 421 kts 266°
2026-04-21 13:12 40.78214 -75.27174 23613 ft 424 kts 266°
2026-04-21 13:12 40.77642 -75.30969 23940 ft 426 kts 266°
2026-04-21 13:12 40.77045 -75.34836 24220 ft 430 kts 265°
2026-04-21 13:13 40.76196 -75.38623 24497 ft 439 kts 258°
2026-04-21 13:13 40.75011 -75.42376 24770 ft 445 kts 254°
2026-04-21 13:13 40.73702 -75.46106 25053 ft 447 kts 252°
2026-04-21 13:13 40.72347 -75.49769 25325 ft 449 kts 252°
2026-04-21 13:14 40.70940 -75.53490 25571 ft 451 kts 251°
2026-04-21 13:14 40.69542 -75.57156 25820 ft 453 kts 251°
2026-04-21 13:14 40.68122 -75.60888 26065 ft 454 kts 251°
2026-04-21 13:14 40.66704 -75.64632 26314 ft 456 kts 251°
2026-04-21 13:15 40.65303 -75.68344 26487 ft 457 kts 251°
2026-04-21 13:15 40.63885 -75.72107 26719 ft 459 kts 251°
2026-04-21 13:15 40.62461 -75.75886 26950 ft 460 kts 251°
2026-04-21 13:15 40.61031 -75.79683 27138 ft 461 kts 251°
2026-04-21 13:16 40.59615 -75.83435 27402 ft 462 kts 251°
2026-04-21 13:16 40.58172 -75.87240 27696 ft 461 kts 251°
2026-04-21 13:16 40.56737 -75.91013 28004 ft 460 kts 251°
2026-04-21 13:16 40.55319 -75.94737 28317 ft 459 kts 251°
2026-04-21 13:17 40.53882 -75.98510 28621 ft 458 kts 251°
2026-04-21 13:17 40.52468 -76.02219 28928 ft 457 kts 251°
2026-04-21 13:17 40.51036 -76.05966 29266 ft 457 kts 251°
2026-04-21 13:17 40.49607 -76.09702 29526 ft 456 kts 251°
2026-04-21 13:18 40.48191 -76.13398 29823 ft 456 kts 251°
2026-04-21 13:18 40.46761 -76.17128 30119 ft 454 kts 251°
2026-04-21 13:18 40.45337 -76.20834 30443 ft 453 kts 251°
2026-04-21 13:18 40.43915 -76.24533 30709 ft 453 kts 251°
2026-04-21 13:19 40.42509 -76.28186 30947 ft 452 kts 251°
2026-04-21 13:19 40.41082 -76.31890 31201 ft 452 kts 251°
2026-04-21 13:19 40.39678 -76.35531 31457 ft 451 kts 251°
2026-04-21 13:19 40.38253 -76.39221 31710 ft 451 kts 251°
2026-04-21 13:20 40.37308 -76.41666 31880 ft 450 kts 251°
2026-04-21 13:20 40.35421 -76.46545 32214 ft 450 kts 251°
2026-04-21 13:20 40.34009 -76.50176 32457 ft 450 kts 250°
2026-04-21 13:20 40.32566 -76.53826 32661 ft 450 kts 250°
2026-04-21 13:21 40.31114 -76.57460 32918 ft 449 kts 250°
2026-04-21 13:21 40.29652 -76.61100 33186 ft 449 kts 250°
2026-04-21 13:21 40.28209 -76.64687 33444 ft 449 kts 250°
2026-04-21 13:21 40.26746 -76.68320 33692 ft 448 kts 250°
2026-04-21 13:22 40.25304 -76.71904 33952 ft 448 kts 250°
2026-04-21 13:22 40.23841 -76.75538 34193 ft 448 kts 250°
2026-04-21 13:22 40.22392 -76.79135 34420 ft 448 kts 250°
2026-04-21 13:22 40.20954 -76.82702 34467 ft 448 kts 250°
2026-04-21 13:23 40.18032 -76.89941 34457 ft 447 kts 250°
2026-04-21 13:23 40.15127 -76.97117 34460 ft 447 kts 250°
2026-04-21 13:24 40.12216 -77.04289 34457 ft 447 kts 250°
2026-04-21 13:24 40.09306 -77.11447 34460 ft 447 kts 250°
2026-04-21 13:25 40.06369 -77.18651 34460 ft 448 kts 249°
2026-04-21 13:25 40.03445 -77.25800 34452 ft 448 kts 250°
2026-04-21 13:26 40.00519 -77.32936 34458 ft 447 kts 250°
2026-04-21 13:26 39.97635 -77.40120 34448 ft 443 kts 253°
2026-04-21 13:27 39.95954 -77.47690 34454 ft 426 kts 270°
2026-04-21 13:27 39.95829 -77.55304 34448 ft 419 kts 277°
2026-04-21 13:28 39.96072 -77.62878 34458 ft 418 kts 279°
2026-04-21 13:28 39.96355 -77.70418 34441 ft 418 kts 279°
2026-04-21 13:29 39.96608 -77.77982 34441 ft 418 kts 278°
2026-04-21 13:29 39.96836 -77.85555 34448 ft 419 kts 278°
2026-04-21 13:30 39.97055 -77.93176 34445 ft 418 kts 278°
2026-04-21 13:30 39.97266 -78.00753 34438 ft 419 kts 278°
2026-04-21 13:31 39.97475 -78.08320 34434 ft 419 kts 278°
2026-04-21 13:31 39.97679 -78.15899 34426 ft 419 kts 278°
2026-04-21 13:32 39.97847 -78.22274 34421 ft 419 kts 278°
2026-04-21 13:32 39.98043 -78.29869 34415 ft 419 kts 278°
2026-04-21 13:33 39.98233 -78.37468 34418 ft 419 kts 278°
2026-04-21 13:33 39.98418 -78.45068 34410 ft 419 kts 278°
2026-04-21 13:34 39.98599 -78.52659 34414 ft 419 kts 278°
2026-04-21 13:34 39.98774 -78.60224 34413 ft 420 kts 278°
2026-04-21 13:35 39.98943 -78.67853 34411 ft 420 kts 278°
2026-04-21 13:35 39.99108 -78.75428 34407 ft 420 kts 278°
2026-04-21 13:36 39.99271 -78.83070 34409 ft 420 kts 278°
2026-04-21 13:36 39.99427 -78.90676 34400 ft 420 kts 278°
2026-04-21 13:37 39.99578 -78.98285 34401 ft 420 kts 278°
2026-04-21 13:37 39.99724 -79.05869 34373 ft 420 kts 278°
2026-04-21 13:38 39.99866 -79.13494 34393 ft 420 kts 278°
2026-04-21 13:38 40.00003 -79.21108 34392 ft 420 kts 278°
2026-04-21 13:39 40.00134 -79.28710 34386 ft 420 kts 278°
2026-04-21 13:39 40.00258 -79.36336 34381 ft 420 kts 277°
2026-04-21 13:40 40.00380 -79.43982 34363 ft 420 kts 277°
2026-04-21 13:40 40.00497 -79.51608 34377 ft 420 kts 277°
2026-04-21 13:41 40.00606 -79.59212 34354 ft 420 kts 277°
2026-04-21 13:41 40.00712 -79.66810 34382 ft 419 kts 277°
2026-04-21 13:42 40.00814 -79.74437 34387 ft 419 kts 277°
2026-04-21 13:42 40.00910 -79.82028 34378 ft 419 kts 277°
2026-04-21 13:43 40.01000 -79.89594 34392 ft 418 kts 277°
2026-04-21 13:43 40.01085 -79.97218 34383 ft 418 kts 277°
2026-04-21 13:44 40.01166 -80.04798 34401 ft 418 kts 277°
2026-04-21 13:44 40.01242 -80.12379 34398 ft 419 kts 277°
2026-04-21 13:45 40.01313 -80.19945 34403 ft 418 kts 277°
2026-04-21 13:45 40.01380 -80.27519 34408 ft 418 kts 277°
2026-04-21 13:46 40.01442 -80.35135 34392 ft 418 kts 277°
2026-04-21 13:46 40.01496 -80.42659 34393 ft 418 kts 277°
2026-04-21 13:47 40.01546 -80.50270 34379 ft 418 kts 276°
2026-04-21 13:47 40.01593 -80.57837 34379 ft 418 kts 276°
2026-04-21 13:48 40.01635 -80.65461 34372 ft 419 kts 276°
2026-04-21 13:48 40.01676 -80.73019 34372 ft 420 kts 276°
2026-04-21 13:49 40.01724 -80.80668 34369 ft 418 kts 278°
2026-04-21 13:49 40.02190 -80.88165 34367 ft 416 kts 281°
2026-04-21 13:50 40.02721 -80.95686 34360 ft 417 kts 281°
2026-04-21 13:50 40.03257 -81.03223 34362 ft 418 kts 280°
2026-04-21 13:51 40.03790 -81.10768 34361 ft 418 kts 280°
2026-04-21 13:51 40.04318 -81.18294 34359 ft 418 kts 280°
2026-04-21 13:52 40.04846 -81.25883 34359 ft 418 kts 280°
2026-04-21 13:52 40.05365 -81.33417 34359 ft 418 kts 280°
2026-04-21 13:53 40.05880 -81.40960 34361 ft 418 kts 280°
2026-04-21 13:53 40.06389 -81.48494 34360 ft 418 kts 280°
2026-04-21 13:54 40.06896 -81.56068 34350 ft 418 kts 280°
2026-04-21 13:54 40.07395 -81.63601 34343 ft 418 kts 280°
2026-04-21 13:55 40.07889 -81.71146 34330 ft 417 kts 279°
2026-04-21 13:55 40.08379 -81.78686 34333 ft 416 kts 279°
2026-04-21 13:56 40.08863 -81.86182 34332 ft 416 kts 279°
2026-04-21 13:56 40.09342 -81.93717 34328 ft 417 kts 279°
2026-04-21 13:57 40.09818 -82.01292 34338 ft 417 kts 279°
2026-04-21 13:57 40.10287 -82.08821 34334 ft 417 kts 279°
2026-04-21 13:58 40.10752 -82.16349 34319 ft 417 kts 279°
2026-04-21 13:58 40.11211 -82.23879 34322 ft 417 kts 279°
2026-04-21 13:59 40.11669 -82.31473 34331 ft 417 kts 279°
2026-04-21 13:59 40.12117 -82.39002 34318 ft 417 kts 279°
2026-04-21 14:00 40.12562 -82.46532 34317 ft 416 kts 279°
2026-04-21 14:00 40.12986 -82.54062 34317 ft 417 kts 277°
2026-04-21 14:01 40.12419 -82.61668 34309 ft 429 kts 261°
2026-04-21 14:01 40.09905 -82.68902 34302 ft 445 kts 244°
2026-04-21 14:02 40.06421 -82.75594 34294 ft 448 kts 242°
2026-04-21 14:03 40.01138 -82.85635 34293 ft 446 kts 243°
2026-04-21 14:03 39.97653 -82.92275 34290 ft 445 kts 243°
2026-04-21 14:04 39.94162 -82.98921 34295 ft 445 kts 243°
2026-04-21 14:04 39.90674 -83.05551 34296 ft 445 kts 243°
2026-04-21 14:05 39.87174 -83.12188 34292 ft 445 kts 243°
2026-04-21 14:05 39.83653 -83.18851 34285 ft 444 kts 243°
2026-04-21 14:06 39.80173 -83.25419 34281 ft 441 kts 243°
2026-04-21 14:06 39.76701 -83.31964 34301 ft 440 kts 243°
2026-04-21 14:07 39.73231 -83.38495 34302 ft 440 kts 243°
2026-04-21 14:07 39.69734 -83.45060 34295 ft 440 kts 243°
2026-04-21 14:08 39.66249 -83.51587 34301 ft 440 kts 243°
2026-04-21 14:08 39.62857 -83.58147 34289 ft 434 kts 247°
2026-04-21 14:09 39.59880 -83.64893 34285 ft 431 kts 248°
2026-04-21 14:09 39.56920 -83.71672 34285 ft 431 kts 248°
2026-04-21 14:10 39.53959 -83.78430 34277 ft 431 kts 248°
2026-04-21 14:10 39.50994 -83.85174 34276 ft 432 kts 248°
2026-04-21 14:11 39.48007 -83.91949 34252 ft 432 kts 248°
2026-04-21 14:11 39.45038 -83.98668 34280 ft 430 kts 248°
2026-04-21 14:12 39.42077 -84.05357 34272 ft 429 kts 248°
2026-04-21 14:12 39.39108 -84.12050 34270 ft 430 kts 248°
2026-04-21 14:13 39.36127 -84.18755 34289 ft 430 kts 248°
2026-04-21 14:13 39.33141 -84.25456 34294 ft 430 kts 248°
2026-04-21 14:13 39.31642 -84.28816 34124 ft 429 kts 248°
2026-04-21 14:14 39.30165 -84.32119 33360 ft 429 kts 247°
2026-04-21 14:14 39.28666 -84.35473 32548 ft 429 kts 247°
2026-04-21 14:14 39.27167 -84.38823 31744 ft 429 kts 247°
2026-04-21 14:14 39.25687 -84.42125 30944 ft 430 kts 247°
2026-04-21 14:15 39.24185 -84.45476 30050 ft 431 kts 246°
2026-04-21 14:15 39.22672 -84.48845 29175 ft 431 kts 246°
2026-04-21 14:15 39.21188 -84.52142 28338 ft 428 kts 246°
2026-04-21 14:15 39.19689 -84.55469 27480 ft 427 kts 246°
2026-04-21 14:16 39.18212 -84.58745 26828 ft 422 kts 246°
2026-04-21 14:16 39.16744 -84.61992 26293 ft 414 kts 246°
2026-04-21 14:16 39.15303 -84.65182 25724 ft 410 kts 246°
2026-04-21 14:16 39.13866 -84.68364 25151 ft 408 kts 246°
2026-04-21 14:17 39.12459 -84.71479 24606 ft 405 kts 246°
2026-04-21 14:17 39.11040 -84.74613 24049 ft 401 kts 246°
2026-04-21 14:17 39.09629 -84.77706 23436 ft 397 kts 245°
2026-04-21 14:17 39.07994 -84.80576 23026 ft 412 kts 234°
2026-04-21 14:18 39.05744 -84.83076 22607 ft 438 kts 220°
2026-04-21 14:18 39.03090 -84.84964 22188 ft 443 kts 213°
2026-04-21 14:18 39.00308 -84.86712 21831 ft 433 kts 212°
2026-04-21 14:18 38.98529 -84.87815 21663 ft 423 kts 212°
2026-04-21 14:19 38.95070 -84.89977 21164 ft 408 kts 213°
2026-04-21 14:19 38.93375 -84.91044 20898 ft 402 kts 213°
2026-04-21 14:19 38.90109 -84.93107 20364 ft 382 kts 213°
2026-04-21 14:19 38.88518 -84.94112 20121 ft 374 kts 213°
2026-04-21 14:20 38.86223 -84.95569 19738 ft 370 kts 213°
2026-04-21 14:20 38.83905 -84.97045 19350 ft 365 kts 213°
2026-04-21 14:20 38.81641 -84.98484 18998 ft 366 kts 213°
2026-04-21 14:20 38.79374 -84.99926 18632 ft 367 kts 212°
2026-04-21 14:21 38.77074 -85.01386 18207 ft 366 kts 212°
2026-04-21 14:21 38.74780 -85.02838 17827 ft 363 kts 212°
2026-04-21 14:21 38.72521 -85.04266 17401 ft 361 kts 212°
2026-04-21 14:21 38.70287 -85.05677 16912 ft 358 kts 211°
2026-04-21 14:22 38.68060 -85.07081 16455 ft 354 kts 211°
2026-04-21 14:22 38.65883 -85.08451 16080 ft 349 kts 211°
2026-04-21 14:22 38.63708 -85.09821 15711 ft 345 kts 211°
2026-04-21 14:22 38.61544 -85.11184 15275 ft 345 kts 210°
2026-04-21 14:23 38.59455 -85.12628 14720 ft 341 kts 218°
2026-04-21 14:23 38.57747 -85.14663 14291 ft 331 kts 236°
2026-04-21 14:23 38.56715 -85.17198 13907 ft 322 kts 254°
2026-04-21 14:23 38.56313 -85.20001 13551 ft 318 kts 264°
2026-04-21 14:24 38.56123 -85.22793 13202 ft 317 kts 266°
2026-04-21 14:24 38.55951 -85.25621 12853 ft 316 kts 266°
2026-04-21 14:24 38.55775 -85.28393 12510 ft 314 kts 266°
2026-04-21 14:24 38.55586 -85.31186 12177 ft 313 kts 265°
2026-04-21 14:25 38.55395 -85.33922 11830 ft 311 kts 265°
2026-04-21 14:25 38.55201 -85.36674 11497 ft 309 kts 265°
2026-04-21 14:25 38.55009 -85.39383 11153 ft 307 kts 265°
2026-04-21 14:25 38.54816 -85.42113 10813 ft 305 kts 265°
2026-04-21 14:26 38.54624 -85.44753 10607 ft 295 kts 265°
2026-04-21 14:26 38.54438 -85.47318 10326 ft 287 kts 265°
2026-04-21 14:26 38.54255 -85.49834 10132 ft 278 kts 265°
2026-04-21 14:26 38.54081 -85.52245 9889 ft 270 kts 265°
2026-04-21 14:27 38.53909 -85.54657 9462 ft 270 kts 265°
2026-04-21 14:27 38.53739 -85.57033 9068 ft 269 kts 265°
2026-04-21 14:27 38.53568 -85.59418 8665 ft 268 kts 265°
2026-04-21 14:27 38.53395 -85.61753 8351 ft 264 kts 264°
2026-04-21 14:28 38.53221 -85.64090 8067 ft 261 kts 264°
2026-04-21 14:28 38.53050 -85.66374 7782 ft 260 kts 264°
2026-04-21 14:28 38.52873 -85.68694 7486 ft 260 kts 264°
2026-04-21 14:28 38.52701 -85.70974 7215 ft 260 kts 264°
2026-04-21 14:29 38.52531 -85.73271 6968 ft 255 kts 264°
2026-04-21 14:29 38.52376 -85.75476 6767 ft 248 kts 264°
2026-04-21 14:29 38.52225 -85.77656 6473 ft 245 kts 264°
2026-04-21 14:29 38.52042 -85.79800 6209 ft 237 kts 258°
2026-04-21 14:30 38.51383 -85.81684 6042 ft 231 kts 232°
2026-04-21 14:30 38.50105 -85.82830 5977 ft 226 kts 205°
2026-04-21 14:30 38.48620 -85.83420 5972 ft 219 kts 200°
2026-04-21 14:30 38.47169 -85.83878 5995 ft 217 kts 195°
2026-04-21 14:31 38.45625 -85.83836 5953 ft 227 kts 174°
2026-04-21 14:31 38.44077 -85.83325 5759 ft 229 kts 169°
2026-04-21 14:31 38.42565 -85.82765 5441 ft 225 kts 170°
2026-04-21 14:31 38.41059 -85.82274 5107 ft 220 kts 172°
2026-04-21 14:32 38.39580 -85.81792 4768 ft 217 kts 172°
2026-04-21 14:32 38.38145 -85.81312 4432 ft 212 kts 172°
2026-04-21 14:32 38.36736 -85.80843 4152 ft 205 kts 173°
2026-04-21 14:32 38.35379 -85.80392 3881 ft 201 kts 173°
2026-04-21 14:33 38.34040 -85.79950 3632 ft 197 kts 174°
2026-04-21 14:33 38.32729 -85.79515 3390 ft 194 kts 173°
2026-04-21 14:33 38.31444 -85.79089 3124 ft 187 kts 174°
2026-04-21 14:33 38.30239 -85.78691 2879 ft 181 kts 174°
2026-04-21 14:34 38.29039 -85.78292 2628 ft 174 kts 174°
2026-04-21 14:34 38.28012 -85.77954 2451 ft 173 kts 174°
2026-04-21 14:34 38.26854 -85.77573 2234 ft 170 kts 173°
2026-04-21 14:34 38.25742 -85.77201 2021 ft 157 kts 173°
2026-04-21 14:35 38.24835 -85.76900 1829 ft 140 kts 174°
2026-04-21 14:35 38.23954 -85.76611 1655 ft 129 kts 174°
2026-04-21 14:35 38.23084 -85.76326 1471 ft 129 kts 173°
2026-04-21 14:35 38.23000 -85.76299 1461 ft 129 kts 173°
2026-04-21 14:36 38.22267 -85.76058 1314 ft 131 kts 171°
2026-04-21 14:36 38.21677 -85.75863 1212 ft 131 kts 169°
2026-04-21 14:36 38.21443 -85.75785 1156 ft 130 kts 169°
2026-04-21 14:37 38.21289 -85.75733 1112 ft 131 kts 167°
2026-04-21 14:37 38.20576 -85.75492 963 ft 129 kts 170°
2026-04-21 14:37 38.19726 -85.75211 782 ft 132 kts 168°
2026-04-21 14:37 38.18843 -85.74917 627 ft 129 kts 166°
2026-04-21 14:38 38.18372 -85.74758 527 ft 130 kts 167°
2026-04-21 14:38 38.17556 -85.74511 486 ft 109 kts 169°
2026-04-21 14:38 38.17015 -85.74336 483 ft 51 kts 157°
2026-04-21 14:38 38.16919 -85.74281 483 ft 46 kts 155°
2026-04-21 14:39 38.16872 -85.74255 483 ft 39 kts 158°
2026-04-21 14:39 38.16711 -85.74193 486 ft 21 kts 161°
2026-04-21 14:39 38.16628 -85.74084 489 ft 16 kts 88°
2026-04-21 14:39 38.16715 -85.74058 488 ft 16 kts 345°
2026-04-21 14:40 38.16824 -85.74094 484 ft 16 kts 346°
2026-04-21 14:40 38.16937 -85.74127 488 ft 16 kts 348°
2026-04-21 14:40 38.17032 -85.74164 486 ft 14 kts 345°
2026-04-21 14:40 38.17139 -85.74200 489 ft 18 kts 346°
2026-04-21 14:41 38.17258 -85.74238 488 ft 17 kts 346°
2026-04-21 14:41 38.17369 -85.74273 489 ft 16 kts 346°
2026-04-21 14:41 38.17474 -85.74307 484 ft 15 kts 344°
2026-04-21 14:41 38.17567 -85.74339 488 ft 13 kts 345°
2026-04-21 14:42 38.17654 -85.74367 486 ft 12 kts 346°
2026-04-21 14:42 38.17739 -85.74394 490 ft 15 kts 346°
2026-04-21 14:42 38.17809 -85.74420 489 ft 1 kts 344°
2026-04-21 14:42 38.17817 -85.74411 487 ft 2 kts 51°
2026-04-21 14:43 38.17797 -85.74343 487 ft 11 kts 115°
2026-04-21 14:43 38.17761 -85.74255 489 ft 13 kts 112°
2026-04-21 14:43 38.17726 -85.74139 487 ft 15 kts 109°
2026-04-21 14:43 38.17682 -85.74002 488 ft 18 kts 112°
2026-04-21 14:44 38.17634 -85.73843 490 ft 20 kts 110°
2026-04-21 14:44 38.17586 -85.73687 485 ft 18 kts 111°
2026-04-21 14:44 38.17543 -85.73546 485 ft 17 kts 111°
2026-04-21 14:44 38.17497 -85.73397 487 ft 19 kts 111°
2026-04-21 14:45 38.17446 -85.73238 484 ft 20 kts 112°
2026-04-21 14:45 38.17399 -85.73073 485 ft 19 kts 109°
2026-04-21 14:45 38.17359 -85.72982 489 ft 7 kts 156°
2026-04-21 14:45 38.17312 -85.72979 490 ft 6 kts 180°
2026-04-21 14:46 38.17285 -85.72980 489 ft 0 kts 181°